Location: Joffre
(52.3362°N, 113.5373°W)
Time: 08:16:27
(UTC+00:00)

Envisat - Pass Details

Date: 05 December 2021
Orbit: 764 x 766 km, 98.2° (Epoch: 25 January)

Event Time Altitude Azimuth Distance (km) Brightness Sun altitude
Rises 13:12:54 0° 12° (NNE) 3,248 6.3 -19.4°
Reaches altitude 10° 13:15:15 10° 9° (N) 2,317 5.5 -19.0°
Maximum altitude 13:20:16 62° 290° (WNW) 862 2.9 -18.3°
Drops below altitude 10° 13:25:16 10° 211° (SSW) 2,300 5.3 -17.5°
Sets 13:27:35 0° 208° (SSW) 3,222 6.1 -17.2°
